When you browse on this site, cookies collect data to enhance your experience and personalize the content and advertising you see.
Visit our Privacy Policy to learn more. By continuing to use the site, you agree to this use of cookies and data.
  • In Sweden
  • List of Countries
  • For 7 days
  • Water Temperature
  • Weather Map
  • Weather Widgets
  • user-avatar
    Login

    Hourly Weather Swiecieniec

    Today, 22 February, Saturday

    Time Temperature Precipitation Wind Pressure Humidity
    00:00 0°C° 0 mm 4 mps 757 mmHg 87%
    01:00 -1°C° 0 mm 4 mps 757 mmHg 88%
    02:00 -1°C° 0 mm 4 mps 757 mmHg 88%
    03:00 -1°C° 0 mm 4 mps 756 mmHg 89%
    04:00 -1°C° 0 mm 5 mps 756 mmHg 89%
    05:00 -1°C° 0 mm 5 mps 756 mmHg 87%
    06:00 -1°C° 0 mm 5 mps 755 mmHg 86%
    07:00 -2°C° 0 mm 6 mps 755 mmHg 84%
    08:00 +1°C° 0 mm 6 mps 754 mmHg 78%
    09:00 +2°C° 0 mm 7 mps 754 mmHg 72%
    10:00 +2°C° 0 mm 8 mps 753 mmHg 66%
    11:00 +3°C° 0 mm 9 mps 752 mmHg 64%
    12:00 +5°C° 0 mm 9 mps 752 mmHg 62%
    13:00 +5°C° 0 mm 9 mps 751 mmHg 60%
    14:00 +6°C° 0 mm 9 mps 750 mmHg 58%
    15:00 +6°C° 0 mm 9 mps 749 mmHg 56%
    16:00 +6°C° 0 mm 8 mps 748 mmHg 55%
    17:00 +6°C° 0 mm 8 mps 748 mmHg 54%
    18:00 +6°C° 0 mm 8 mps 748 mmHg 53%
    19:00 +7°C° 0 mm 9 mps 747 mmHg 52%
    20:00 +7°C° 0 mm 9 mps 747 mmHg 55%
    21:00 +7°C° 0 mm 10 mps 747 mmHg 59%
    22:00 +7°C° 0 mm 10 mps 746 mmHg 62%
    23:00 +6°C° 0.6 mm 9 mps 746 mmHg 68%

    Tomorrow, 23 February, Sunday

    Time Temperature Precipitation Wind Pressure Humidity
    00:00 +5°C° 0.6 mm 9 mps 747 mmHg 74%
    01:00 +4°C° 0.6 mm 8 mps 747 mmHg 80%
    02:00 +4°C° 0.1 mm 8 mps 747 mmHg 77%
    03:00 +2°C° 0.1 mm 8 mps 747 mmHg 74%
    04:00 +3°C° 0.1 mm 7 mps 747 mmHg 70%
    05:00 +3°C° 0 mm 7 mps 747 mmHg 71%
    06:00 +2°C° 0 mm 7 mps 748 mmHg 71%
    07:00 +2°C° 0 mm 7 mps 748 mmHg 72%
    08:00 +1°C° 0.1 mm 8 mps 748 mmHg 71%
    09:00 +2°C° 0.1 mm 9 mps 747 mmHg 71%
    10:00 +2°C° 0.1 mm 9 mps 747 mmHg 71%
    11:00 +2°C° 0.2 mm 9 mps 747 mmHg 69%
    12:00 +2°C° 0.2 mm 8 mps 747 mmHg 67%
    13:00 +2°C° 0.2 mm 8 mps 746 mmHg 65%
    14:00 +3°C° 0 mm 7 mps 745 mmHg 69%
    15:00 +3°C° 0 mm 6 mps 744 mmHg 72%
    16:00 +3°C° 0 mm 5 mps 743 mmHg 75%
    17:00 +3°C° 0.6 mm 4 mps 741 mmHg 82%
    18:00 +3°C° 0.6 mm 3 mps 740 mmHg 88%
    19:00 +3°C° 0.6 mm 2 mps 739 mmHg 95%
    20:00 +2°C° 1.4 mm 3 mps 738 mmHg 95%
    21:00 +2°C° 1.4 mm 3 mps 738 mmHg 95%
    22:00 0°C° 1.4 mm 4 mps 738 mmHg 96%
    23:00 0°C° 0.8 mm 5 mps 740 mmHg 93%

    Day after tomorrow, 24 February, Monday

    Time Temperature Precipitation Wind Pressure Humidity
    00:00 -1°C° 0.8 mm 7 mps 741 mmHg 90%
    01:00 -1°C° 0.8 mm 8 mps 743 mmHg 88%
    02:00 -1°C° 0.1 mm 8 mps 744 mmHg 84%
    03:00 -1°C° 0.1 mm 8 mps 745 mmHg 80%
    04:00 -1°C° 0.1 mm 8 mps 746 mmHg 77%
    05:00 -1°C° 0 mm 8 mps 747 mmHg 79%
    06:00 -1°C° 0 mm 8 mps 748 mmHg 81%
    07:00 0°C° 0 mm 8 mps 749 mmHg 83%
    08:00 0°C° 0 mm 7 mps 750 mmHg 81%
    09:00 0°C° 0 mm 7 mps 750 mmHg 80%
    10:00 +2°C° 0 mm 7 mps 751 mmHg 78%
    11:00 +2°C° 0 mm 7 mps 751 mmHg 76%
    12:00 +2°C° 0 mm 7 mps 751 mmHg 74%
    13:00 +3°C° 0 mm 7 mps 751 mmHg 72%
    14:00 +2°C° 0 mm 7 mps 751 mmHg 72%
    15:00 +2°C° 0 mm 6 mps 751 mmHg 72%
    16:00 +1°C° 0 mm 6 mps 750 mmHg 72%
    17:00 +1°C° 0 mm 6 mps 750 mmHg 74%
    18:00 +1°C° 0 mm 5 mps 749 mmHg 76%
    19:00 0°C° 0 mm 5 mps 749 mmHg 79%
    20:00 0°C° 0 mm 4 mps 748 mmHg 80%
    21:00 0°C° 0 mm 4 mps 747 mmHg 81%
    22:00 +1°C° 0 mm 3 mps 746 mmHg 82%
    23:00 0°C° 0.1 mm 4 mps 745 mmHg 83%

    25 February, Tuesday

    Time Temperature Precipitation Wind Pressure Humidity
    00:00 +1°C° 0.1 mm 5 mps 744 mmHg 84%
    01:00 +1°C° 0.1 mm 6 mps 743 mmHg 84%
    02:00 +2°C° 1.2 mm 6 mps 742 mmHg 85%
    03:00 +3°C° 1.2 mm 6 mps 740 mmHg 86%
    04:00 +4°C° 1.2 mm 6 mps 739 mmHg 87%
    05:00 +4°C° 0.2 mm 7 mps 739 mmHg 87%
    06:00 +5°C° 0.2 mm 7 mps 739 mmHg 88%
    07:00 +6°C° 0.2 mm 7 mps 739 mmHg 88%
    08:00 +6°C° 0.1 mm 8 mps 739 mmHg 84%
    09:00 +7°C° 0.1 mm 9 mps 739 mmHg 80%
    10:00 +7°C° 0.1 mm 9 mps 739 mmHg 75%
    11:00 +7°C° 0.1 mm 8 mps 738 mmHg 75%
    12:00 +8°C° 0.1 mm 7 mps 738 mmHg 75%
    13:00 +7°C° 0.1 mm 6 mps 738 mmHg 76%
    14:00 +7°C° 0 mm 6 mps 738 mmHg 74%
    15:00 +7°C° 0 mm 6 mps 737 mmHg 73%
    16:00 +7°C° 0 mm 6 mps 737 mmHg 72%
    17:00 +5°C° 0 mm 6 mps 737 mmHg 72%
    18:00 +5°C° 0 mm 5 mps 737 mmHg 72%
    19:00 +4°C° 0 mm 4 mps 737 mmHg 72%
    20:00 +3°C° 0 mm 4 mps 737 mmHg 72%
    21:00 +3°C° 0 mm 4 mps 737 mmHg 72%
    22:00 +2°C° 0 mm 5 mps 737 mmHg 71%
    23:00 +2°C° 0 mm 5 mps 737 mmHg 72%

    26 February, Wednesday

    Time Temperature Precipitation Wind Pressure Humidity
    00:00 +1°C° 0 mm 5 mps 737 mmHg 73%
    01:00 +1°C° 0 mm 5 mps 737 mmHg 74%
    02:00 +1°C° 0 mm 5 mps 737 mmHg 75%
    03:00 0°C° 0 mm 5 mps 736 mmHg 76%
    04:00 0°C° 0 mm 5 mps 736 mmHg 77%
    05:00 0°C° 0 mm 5 mps 736 mmHg 77%
    06:00 0°C° 0 mm 4 mps 736 mmHg 78%
    07:00 -1°C° 0 mm 4 mps 736 mmHg 79%
    08:00 0°C° 0 mm 4 mps 736 mmHg 75%
    09:00 +1°C° 0 mm 5 mps 736 mmHg 71%
    10:00 +2°C° 0 mm 5 mps 736 mmHg 67%
    11:00 +3°C° 0 mm 5 mps 736 mmHg 62%
    12:00 +5°C° 0 mm 5 mps 736 mmHg 58%
    13:00 +6°C° 0 mm 4 mps 736 mmHg 53%
    14:00 +5°C° 0 mm 3 mps 736 mmHg 55%
    15:00 +6°C° 0 mm 2 mps 736 mmHg 57%
    16:00 +7°C° 0 mm 1 mps 736 mmHg 59%
    17:00 +6°C° 0 mm 1 mps 736 mmHg 62%
    18:00 +5°C° 0 mm 1 mps 736 mmHg 65%
    19:00 +4°C° 0 mm 0 mps 737 mmHg 68%
    20:00 +5°C° 0 mm 1 mps 737 mmHg 69%
    21:00 +5°C° 0 mm 1 mps 737 mmHg 70%
    22:00 +5°C° 0 mm 1 mps 738 mmHg 70%
    23:00 +3°C° 0 mm 2 mps 738 mmHg 72%

    27 February, Thursday

    Time Temperature Precipitation Wind Pressure Humidity
    00:00 +3°C° 0 mm 2 mps 738 mmHg 74%
    01:00 +2°C° 0 mm 3 mps 738 mmHg 76%
    02:00 +2°C° 0.1 mm 3 mps 739 mmHg 79%
    03:00 +1°C° 0.1 mm 3 mps 739 mmHg 81%
    04:00 0°C° 0.1 mm 4 mps 739 mmHg 84%
    05:00 0°C° 0 mm 4 mps 740 mmHg 85%
    06:00 -1°C° 0 mm 4 mps 740 mmHg 86%
    07:00 -2°C° 0 mm 5 mps 741 mmHg 87%
    08:00 -1°C° 0 mm 5 mps 742 mmHg 86%
    09:00 -1°C° 0 mm 5 mps 742 mmHg 84%
    10:00 0°C° 0 mm 5 mps 743 mmHg 83%
    11:00 0°C° 0.1 mm 5 mps 744 mmHg 77%
    12:00 +1°C° 0.1 mm 5 mps 744 mmHg 72%
    13:00 +2°C° 0.1 mm 6 mps 745 mmHg 66%
    14:00 +1°C° 0 mm 5 mps 745 mmHg 65%
    15:00 +1°C° 0 mm 5 mps 745 mmHg 65%
    16:00 +1°C° 0 mm 5 mps 746 mmHg 64%
    17:00 0°C° 0 mm 4 mps 746 mmHg 69%
    18:00 0°C° 0 mm 3 mps 746 mmHg 73%
    19:00 -1°C° 0 mm 2 mps 747 mmHg 77%
    20:00 -1°C° 0 mm 2 mps 747 mmHg 78%
    21:00 -1°C° 0 mm 2 mps 747 mmHg 79%
    22:00 0°C° 0 mm 1 mps 747 mmHg 79%
    23:00 -2°C° 0 mm 2 mps 747 mmHg 80%
    Show more